[Date Prev][Date Next][Thread Prev][Thread Next] - [Date Index][Thread Index][Author Index]
2 Line ISS Keps 3-12
- Subject: [sarex] 2 Line ISS Keps 3-12
- From: "Dave Larsen PhD" <doc@xxxxxxxxxxx>
- Date: Sat, 12 Mar 2005 02:41:01 -0800
ISS
1 25544U 98067A 05071.34955014 .00022291 00000-0 18015-3 0 9965
2 25544 051.6471 036.3060 0003804 180.5599 342.3373 15.70746827360456
----
Via the sarex mailing list at AMSAT.ORG courtesy of AMSAT-NA.
To unsubscribe, send "unsubscribe sarex" to Majordomo@amsat.org
AMSAT Home